Time,TemperatureF,DewpointF,PressureIn,WindDirection,WindDirectionDegrees,WindSpeedMPH,WindSpeedGustMPH,Humidity,HourlyPrecipIn,Conditions,Clouds,dailyrainin,SoftwareType,DateUTC
2013-01-24 00:00:00,-11.9,-16.1,30.11,NE,38,0.0,0.0,81,0.00,,,0.00,Wunderground v.1.15,2013-01-24 05:00:00,
2013-01-24 00:03:00,-11.9,-15.8,30.11,NNW,335,0.0,0.0,82,0.00,,,0.00,Wunderground v.1.15,2013-01-24 05:03:00,
2013-01-24 00:05:00,-11.9,-15.8,30.11,NNW,335,0.0,0.0,82,0.00,,,0.00,Wunderground v.1.15,2013-01-24 05:05:00,
2013-01-24 00:06:00,-11.9,-15.8,30.10,WNW,299,1.0,1.0,82,0.00,,,0.00,Wunderground v.1.15,2013-01-24 05:06:00,
2013-01-24 00:12:00,-11.8,-15.8,30.10,NW,305,0.0,1.0,82,0.00,,,0.00,Wunderground v.1.15,2013-01-24 05:12:00,
2013-01-24 00:17:00,-11.8,-15.8,30.10,NW,309,0.0,1.0,82,0.00,,,0.00,Wunderground v.1.15,2013-01-24 05:17:00,
2013-01-24 00:22:00,-11.8,-15.8,30.10,NW,319,0.0,1.0,82,0.00,,,0.00,Wunderground v.1.15,2013-01-24 05:22:00,
2013-01-24 00:28:00,-11.9,-16.1,30.10,South,190,0.0,1.0,81,0.00,,,0.00,Wunderground v.1.15,2013-01-24 05:28:00,
2013-01-24 00:33:00,-12.1,-16.3,30.11,WNW,302,0.0,0.0,81,0.00,,,0.00,Wunderground v.1.15,2013-01-24 05:33:00,
2013-01-24 00:38:00,-12.4,-16.6,30.11,NE,52,0.0,1.0,81,0.00,,,0.00,Wunderground v.1.15,2013-01-24 05:38:00,
2013-01-24 00:43:00,-12.8,-17.0,30.11,NE,53,0.0,0.0,81,0.00,,,0.00,Wunderground v.1.15,2013-01-24 05:43:00,
2013-01-24 00:48:00,-13.3,-17.5,30.11,NE,53,0.0,0.0,81,0.00,,,0.00,Wunderground v.1.15,2013-01-24 05:48:00,
2013-01-24 00:53:00,-13.4,-17.6,30.11,NE,53,0.0,0.0,81,0.00,,,0.00,Wunderground v.1.15,2013-01-24 05:53:00,
2013-01-24 00:59:00,-13.6,-17.8,30.11,NE,53,0.0,0.0,81,0.00,,,0.00,Wunderground v.1.15,2013-01-24 05:59:00,
2013-01-24 01:04:00,-13.8,-17.7,30.11,NE,53,0.0,0.0,82,0.00,,,0.00,Wunderground v.1.15,2013-01-24 06:04:00,
2013-01-24 01:10:00,-14.1,-18.2,30.12,NE,53,0.0,0.0,81,0.00,,,0.00,Wunderground v.1.15,2013-01-24 06:10:00,
2013-01-24 01:16:00,-14.5,-18.4,30.12,NE,53,0.0,0.0,82,0.00,,,0.00,Wunderground v.1.15,2013-01-24 06:16:00,
2013-01-24 01:21:00,-14.6,-18.5,30.12,NE,52,0.0,0.0,82,0.00,,,0.00,Wunderground v.1.15,2013-01-24 06:21:00,
2013-01-24 01:27:00,-15.1,-19.0,30.12,NE,52,0.0,0.0,82,0.00,,,0.00,Wunderground v.1.15,2013-01-24 06:27:00,
2013-01-24 01:32:00,-15.5,-19.6,30.12,NE,52,0.0,0.0,81,0.00,,,0.00,Wunderground v.1.15,2013-01-24 06:32:00,
2013-01-24 01:38:00,-15.6,-19.5,30.12,NE,53,0.0,0.0,82,0.00,,,0.00,Wunderground v.1.15,2013-01-24 06:38:00,
2013-01-24 01:44:00,-15.7,-19.6,30.13,NE,53,0.0,0.0,82,0.00,,,0.00,Wunderground v.1.15,2013-01-24 06:44:00,
2013-01-24 01:49:00,-15.9,-19.8,30.13,NE,52,0.0,0.0,82,0.00,,,0.00,Wunderground v.1.15,2013-01-24 06:49:00,
2013-01-24 01:54:00,-16.1,-20.0,30.13,ESE,122,1.0,1.0,82,0.00,,,0.00,Wunderground v.1.15,2013-01-24 06:54:00,
2013-01-24 01:59:00,-16.1,-20.0,30.13,ESE,122,0.0,0.0,82,0.00,,,0.00,Wunderground v.1.15,2013-01-24 06:59:00,
2013-01-24 02:04:00,-16.2,-20.1,30.13,ESE,123,0.0,0.0,82,0.00,,,0.00,Wunderground v.1.15,2013-01-24 07:04:00,
2013-01-24 02:09:00,-16.2,-19.8,30.13,ESE,121,0.0,0.0,83,0.00,,,0.00,Wunderground v.1.15,2013-01-24 07:09:00,
2013-01-24 02:14:00,-16.5,-20.4,30.13,ESE,121,0.0,0.0,82,0.00,,,0.00,Wunderground v.1.15,2013-01-24 07:14:00,
2013-01-24 02:19:00,-17.0,-21.1,30.13,ESE,122,0.0,0.0,81,0.00,,,0.00,Wunderground v.1.15,2013-01-24 07:19:00,
2013-01-24 02:24:00,-17.2,-21.3,30.13,ESE,122,0.0,0.0,81,0.00,,,0.00,Wunderground v.1.15,2013-01-24 07:24:00,
2013-01-24 02:29:00,-17.6,-21.7,30.13,ESE,123,0.0,0.0,81,0.00,,,0.00,Wunderground v.1.15,2013-01-24 07:29:00,
2013-01-24 02:34:00,-18.0,-22.1,30.12,ESE,123,0.0,0.0,81,0.00,,,0.00,Wunderground v.1.15,2013-01-24 07:34:00,
2013-01-24 02:39:00,-18.3,-22.4,30.12,ESE,123,0.0,0.0,81,0.00,,,0.00,Wunderground v.1.15,2013-01-24 07:39:00,
2013-01-24 02:44:00,-18.0,-21.6,30.12,ESE,109,0.0,1.0,83,0.00,,,0.00,Wunderground v.1.15,2013-01-24 07:44:00,
2013-01-24 02:49:00,-18.2,-22.0,30.12,ESE,109,0.0,0.0,82,0.00,,,0.00,Wunderground v.1.15,2013-01-24 07:49:00,
2013-01-24 02:54:00,-18.2,-22.0,30.12,ESE,108,0.0,0.0,82,0.00,,,0.00,Wunderground v.1.15,2013-01-24 07:54:00,
2013-01-24 02:59:00,-18.2,-22.0,30.12,ESE,109,0.0,0.0,82,0.00,,,0.00,Wunderground v.1.15,2013-01-24 07:59:00,
2013-01-24 03:04:00,-18.3,-22.1,30.12,ESE,109,0.0,0.0,82,0.00,,,0.00,Wunderground v.1.15,2013-01-24 08:04:00,
2013-01-24 03:09:00,-18.4,-22.0,30.11,ESE,109,0.0,0.0,83,0.00,,,0.00,Wunderground v.1.15,2013-01-24 08:09:00,
2013-01-24 03:14:00,-18.1,-21.7,30.11,WNW,301,0.0,0.0,83,0.00,,,0.00,Wunderground v.1.15,2013-01-24 08:14:00,
2013-01-24 03:19:00,-17.4,-20.8,30.11,ENE,60,0.0,1.0,84,0.00,,,0.00,Wunderground v.1.15,2013-01-24 08:19:00,
2013-01-24 03:24:00,-16.4,-19.6,30.11,NW,304,0.0,1.0,85,0.00,,,0.00,Wunderground v.1.15,2013-01-24 08:24:00,
2013-01-24 03:29:00,-15.7,-18.9,30.11,NW,311,0.0,2.0,85,0.00,,,0.00,Wunderground v.1.15,2013-01-24 08:29:00,
2013-01-24 03:34:00,-15.1,-18.3,30.11,West,264,1.0,2.0,85,0.00,,,0.00,Wunderground v.1.15,2013-01-24 08:34:00,
2013-01-24 03:39:00,-14.7,-18.1,30.11,WNW,292,1.0,1.0,84,0.00,,,0.00,Wunderground v.1.15,2013-01-24 08:39:00,
2013-01-24 03:45:00,-14.2,-17.6,30.11,WNW,301,0.0,3.0,84,0.00,,,0.00,Wunderground v.1.15,2013-01-24 08:45:00,
2013-01-24 03:50:00,-13.7,-17.1,30.11,NW,316,0.0,1.0,84,0.00,,,0.00,Wunderground v.1.15,2013-01-24 08:50:00,
2013-01-24 03:55:00,-13.0,-16.5,30.11,West,267,2.0,4.0,84,0.00,,,0.00,Wunderground v.1.15,2013-01-24 08:55:00,
2013-01-24 04:00:00,-12.7,-16.4,30.11,WSW,240,6.0,6.0,83,0.00,,,0.00,Wunderground v.1.15,2013-01-24 09:00:00,
2013-01-24 04:05:00,-12.4,-16.1,30.11,North,8,0.0,6.0,83,0.00,,,0.00,Wunderground v.1.15,2013-01-24 09:05:00,
2013-01-24 04:10:00,-12.3,-16.2,30.10,West,267,0.0,1.0,82,0.00,,,0.00,Wunderground v.1.15,2013-01-24 09:10:00,
2013-01-24 04:15:00,-12.3,-16.2,30.11,WNW,292,0.0,2.0,82,0.00,,,0.00,Wunderground v.1.15,2013-01-24 09:15:00,
2013-01-24 04:20:00,-12.3,-16.2,30.11,WNW,286,0.0,1.0,82,0.00,,,0.00,Wunderground v.1.15,2013-01-24 09:20:00,
2013-01-24 04:25:00,-12.4,-16.6,30.11,WNW,286,0.0,1.0,81,0.00,,,0.00,Wunderground v.1.15,2013-01-24 09:25:00,
2013-01-24 04:30:00,-12.9,-17.1,30.11,WNW,287,0.0,0.0,81,0.00,,,0.00,Wunderground v.1.15,2013-01-24 09:30:00,
2013-01-24 04:35:00,-13.4,-17.8,30.11,NNW,330,0.0,1.0,80,0.00,,,0.00,Wunderground v.1.15,2013-01-24 09:35:00,
2013-01-24 04:40:00,-13.8,-18.0,30.11,NNW,331,0.0,0.0,81,0.00,,,0.00,Wunderground v.1.15,2013-01-24 09:40:00,
2013-01-24 04:45:00,-14.4,-18.8,30.11,NNW,331,0.0,0.0,80,0.00,,,0.00,Wunderground v.1.15,2013-01-24 09:45:00,
2013-01-24 04:50:00,-14.8,-19.2,30.11,ESE,119,0.0,1.0,80,0.00,,,0.00,Wunderground v.1.15,2013-01-24 09:50:00,
2013-01-24 04:55:00,-15.3,-19.7,30.11,ESE,119,0.0,1.0,80,0.00,,,0.00,Wunderground v.1.15,2013-01-24 09:55:00,
2013-01-24 05:00:00,-15.0,-18.9,30.11,NNE,12,0.0,0.0,82,0.00,,,0.00,Wunderground v.1.15,2013-01-24 10:00:00,
2013-01-24 05:05:00,-14.6,-18.3,30.11,NNW,347,1.0,2.0,83,0.00,,,0.00,Wunderground v.1.15,2013-01-24 10:05:00,
2013-01-24 05:10:00,-14.3,-18.0,30.12,NNW,333,0.0,0.0,83,0.00,,,0.00,Wunderground v.1.15,2013-01-24 10:10:00,
2013-01-24 05:15:00,-14.2,-18.1,30.12,NNW,331,0.0,2.0,82,0.00,,,0.00,Wunderground v.1.15,2013-01-24 10:15:00,
2013-01-24 05:20:00,-14.4,-18.3,30.12,NNE,23,0.0,0.0,82,0.00,,,0.00,Wunderground v.1.15,2013-01-24 10:20:00,
2013-01-24 05:25:00,-14.5,-18.4,30.12,ENE,65,0.0,0.0,82,0.00,,,0.00,Wunderground v.1.15,2013-01-24 10:25:00,
2013-01-24 05:30:00,-14.6,-18.5,30.12,ENE,65,0.0,1.0,82,0.00,,,0.00,Wunderground v.1.15,2013-01-24 10:30:00,
2013-01-24 05:35:00,-14.7,-18.6,30.13,ENE,65,0.0,1.0,82,0.00,,,0.00,Wunderground v.1.15,2013-01-24 10:35:00,
2013-01-24 05:40:00,-14.9,-19.0,30.13,ENE,65,0.0,0.0,81,0.00,,,0.00,Wunderground v.1.15,2013-01-24 10:40:00,
2013-01-24 05:45:00,-15.5,-19.6,30.13,ENE,65,0.0,0.0,81,0.00,,,0.00,Wunderground v.1.15,2013-01-24 10:45:00,
2013-01-24 05:50:00,-16.0,-20.1,30.13,ENE,65,0.0,0.0,81,0.00,,,0.00,Wunderground v.1.15,2013-01-24 10:50:00,
2013-01-24 05:55:00,-16.3,-20.4,30.13,ENE,65,0.0,0.0,81,0.00,,,0.00,Wunderground v.1.15,2013-01-24 10:55:00,
2013-01-24 06:00:00,-16.3,-20.4,30.13,ENE,65,0.0,0.0,81,0.00,,,0.00,Wunderground v.1.15,2013-01-24 11:00:00,
2013-01-24 06:05:00,-16.4,-20.3,30.13,ENE,65,0.0,0.0,82,0.00,,,0.00,Wunderground v.1.15,2013-01-24 11:05:00,
2013-01-24 06:10:00,-16.5,-20.4,30.14,ENE,65,0.0,0.0,82,0.00,,,0.00,Wunderground v.1.15,2013-01-24 11:10:00,
2013-01-24 06:16:00,-16.6,-20.5,30.14,ENE,65,0.0,0.0,82,0.00,,,0.00,Wunderground v.1.15,2013-01-24 11:16:00,
2013-01-24 06:21:00,-16.8,-20.9,30.14,ENE,65,0.0,1.0,81,0.00,,,0.00,Wunderground v.1.15,2013-01-24 11:21:00,
2013-01-24 06:26:00,-16.9,-20.8,30.14,ENE,65,0.0,1.0,82,0.00,,,0.00,Wunderground v.1.15,2013-01-24 11:26:00,
2013-01-24 06:31:00,-17.0,-20.8,30.14,ENE,65,0.0,0.0,82,0.00,,,0.00,Wunderground v.1.15,2013-01-24 11:31:00,
2013-01-24 06:36:00,-17.3,-21.4,30.15,ENE,65,0.0,0.0,81,0.00,,,0.00,Wunderground v.1.15,2013-01-24 11:36:00,
2013-01-24 06:41:00,-17.6,-21.7,30.15,ENE,65,0.0,0.0,81,0.00,,,0.00,Wunderground v.1.15,2013-01-24 11:41:00,
2013-01-24 06:46:00,-17.5,-21.3,30.15,ENE,66,0.0,0.0,82,0.00,,,0.00,Wunderground v.1.15,2013-01-24 11:46:00,
2013-01-24 06:51:00,-17.5,-21.3,30.15,ENE,65,0.0,0.0,82,0.00,,,0.00,Wunderground v.1.15,2013-01-24 11:51:00,
2013-01-24 06:56:00,-17.8,-21.9,30.15,ENE,65,0.0,0.0,81,0.00,,,0.00,Wunderground v.1.15,2013-01-24 11:56:00,
2013-01-24 07:01:00,-18.2,-22.3,30.15,ENE,65,0.0,0.0,81,0.00,,,0.00,Wunderground v.1.15,2013-01-24 12:01:00,
2013-01-24 07:06:00,-18.2,-22.3,30.16,ENE,66,0.0,0.0,81,0.00,,,0.00,Wunderground v.1.15,2013-01-24 12:06:00,
2013-01-24 07:11:00,-18.4,-22.5,30.16,ENE,67,0.0,0.0,81,0.00,,,0.00,Wunderground v.1.15,2013-01-24 12:11:00,
2013-01-24 07:16:00,-18.4,-22.5,30.16,ENE,67,0.0,0.0,81,0.00,,,0.00,Wunderground v.1.15,2013-01-24 12:16:00,
2013-01-24 07:21:00,-18.4,-22.5,30.16,ENE,67,0.0,0.0,81,0.00,,,0.00,Wunderground v.1.15,2013-01-24 12:21:00,
2013-01-24 07:26:00,-17.3,-20.9,30.16,NE,55,0.0,2.0,83,0.00,,,0.00,Wunderground v.1.15,2013-01-24 12:26:00,
2013-01-24 07:31:00,-17.0,-20.6,30.17,NE,55,0.0,0.0,83,0.00,,,0.00,Wunderground v.1.15,2013-01-24 12:31:00,
2013-01-24 07:36:00,-15.9,-19.5,30.17,NNW,340,0.0,3.0,83,0.00,,,0.00,Wunderground v.1.15,2013-01-24 12:36:00,
2013-01-24 07:41:00,-15.1,-18.8,30.17,West,277,0.0,1.0,83,0.00,,,0.00,Wunderground v.1.15,2013-01-24 12:41:00,
2013-01-24 07:46:00,-15.0,-19.1,30.17,WSW,256,0.0,1.0,81,0.00,,,0.00,Wunderground v.1.15,2013-01-24 12:46:00,
2013-01-24 07:51:00,-14.9,-19.3,30.17,WNW,301,0.0,0.0,80,0.00,,,0.00,Wunderground v.1.15,2013-01-24 12:51:00,
2013-01-24 07:56:00,-14.2,-18.6,30.17,NNW,339,2.0,2.0,80,0.00,,,0.00,Wunderground v.1.15,2013-01-24 12:56:00,
2013-01-24 08:01:00,-12.3,-16.0,30.17,NNW,343,1.0,4.0,83,0.00,,,0.00,Wunderground v.1.15,2013-01-24 13:01:00,
2013-01-24 08:06:00,-10.5,-14.0,30.18,NW,304,2.0,6.0,84,0.00,,,0.00,Wunderground v.1.15,2013-01-24 13:06:00,
2013-01-24 08:11:00,-9.5,-13.5,30.18,NW,307,2.0,8.0,82,0.00,,,0.00,Wunderground v.1.15,2013-01-24 13:11:00,
2013-01-24 08:16:00,-9.0,-13.5,30.18,NW,321,4.0,8.0,80,0.00,,,0.00,Wunderground v.1.15,2013-01-24 13:16:00,
2013-01-24 08:21:00,-8.6,-13.1,30.18,NW,316,3.0,7.0,80,0.00,,,0.00,Wunderground v.1.15,2013-01-24 13:21:00,
2013-01-24 08:26:00,-8.1,-12.9,30.18,NW,315,4.0,7.0,79,0.00,,,0.00,Wunderground v.1.15,2013-01-24 13:26:00,
2013-01-24 08:31:00,-7.8,-12.6,30.18,WNW,298,7.0,8.0,79,0.00,,,0.00,Wunderground v.1.15,2013-01-24 13:31:00,
2013-01-24 08:36:00,-7.6,-12.6,30.18,NW,304,4.0,10.0,78,0.00,,,0.00,Wunderground v.1.15,2013-01-24 13:36:00,
2013-01-24 08:41:00,-7.2,-12.2,30.18,NW,319,2.0,8.0,78,0.00,,,0.00,Wunderground v.1.15,2013-01-24 13:41:00,
2013-01-24 08:46:00,-7.0,-12.1,30.18,NNW,340,8.0,9.0,78,0.00,,,0.00,Wunderground v.1.15,2013-01-24 13:46:00,
2013-01-24 08:51:00,-7.0,-12.3,30.18,NW,305,5.0,7.0,77,0.00,,,0.00,Wunderground v.1.15,2013-01-24 13:51:00,
2013-01-24 08:57:00,-7.0,-12.3,30.18,NW,318,4.0,8.0,77,0.00,,,0.00,Wunderground v.1.15,2013-01-24 13:57:00,
2013-01-24 09:01:00,-6.7,-12.0,30.18,NW,316,6.0,7.0,77,0.00,,,0.00,Wunderground v.1.15,2013-01-24 14:01:00,
2013-01-24 09:06:00,-6.1,-11.4,30.19,NW,314,4.0,7.0,77,0.00,,,0.00,Wunderground v.1.15,2013-01-24 14:06:00,
2013-01-24 09:11:00,-5.6,-11.2,30.19,NW,319,2.0,7.0,76,0.00,,,0.00,Wunderground v.1.15,2013-01-24 14:11:00,
2013-01-24 09:16:00,-5.2,-10.8,30.19,NW,312,3.0,7.0,76,0.00,,,0.00,Wunderground v.1.15,2013-01-24 14:16:00,
2013-01-24 09:22:00,-4.9,-10.8,30.19,NW,310,5.0,7.0,75,0.00,,,0.00,Wunderground v.1.15,2013-01-24 14:22:00,
2013-01-24 09:27:00,-4.3,-10.5,30.19,West,276,7.0,9.0,74,0.00,,,0.00,Wunderground v.1.15,2013-01-24 14:27:00,
2013-01-24 09:32:00,-4.2,-10.7,30.19,North,358,1.0,6.0,73,0.00,,,0.00,Wunderground v.1.15,2013-01-24 14:32:00,
2013-01-24 09:37:00,-3.8,-10.6,30.19,WSW,243,3.0,8.0,72,0.00,,,0.00,Wunderground v.1.15,2013-01-24 14:37:00,
2013-01-24 09:42:00,-3.4,-10.2,30.19,NW,322,4.0,6.0,72,0.00,,,0.00,Wunderground v.1.15,2013-01-24 14:42:00,
2013-01-24 09:47:00,-3.3,-10.6,30.19,NW,321,6.0,7.0,70,0.00,,,0.00,Wunderground v.1.15,2013-01-24 14:47:00,
2013-01-24 09:52:00,-3.2,-10.3,30.19,NW,311,6.0,8.0,71,0.00,,,0.00,Wunderground v.1.15,2013-01-24 14:52:00,
2013-01-24 09:57:00,-3.1,-10.5,30.19,WNW,297,3.0,8.0,70,0.00,,,0.00,Wunderground v.1.15,2013-01-24 14:57:00,
2013-01-24 10:02:00,-2.9,-10.3,30.19,West,259,2.0,5.0,70,0.00,,,0.00,Wunderground v.1.15,2013-01-24 15:02:00,
2013-01-24 10:07:00,-2.7,-10.4,30.19,NNW,341,4.0,7.0,69,0.00,,,0.00,Wunderground v.1.15,2013-01-24 15:07:00,
2013-01-24 10:12:00,-2.6,-10.3,30.19,NW,320,3.0,7.0,69,0.00,,,0.00,Wunderground v.1.15,2013-01-24 15:12:00,
2013-01-24 10:17:00,-2.5,-10.2,30.19,NW,307,3.0,8.0,69,0.00,,,0.00,Wunderground v.1.15,2013-01-24 15:17:00,
2013-01-24 10:22:00,-2.0,-9.7,30.19,WNW,301,3.0,7.0,69,0.00,,,0.00,Wunderground v.1.15,2013-01-24 15:22:00,
2013-01-24 10:27:00,-1.6,-10.2,30.20,NNW,347,2.0,9.0,66,0.00,,,0.00,Wunderground v.1.15,2013-01-24 15:27:00,
2013-01-24 10:32:00,-2.3,-11.5,30.20,WNW,290,4.0,11.0,64,0.00,,,0.00,Wunderground v.1.15,2013-01-24 15:32:00,
2013-01-24 10:37:00,-2.4,-11.3,30.20,NW,320,9.0,13.0,65,0.00,,,0.00,Wunderground v.1.15,2013-01-24 15:37:00,
2013-01-24 10:42:00,-2.4,-11.3,30.20,NW,314,10.0,16.0,65,0.00,,,0.00,Wunderground v.1.15,2013-01-24 15:42:00,
2013-01-24 10:47:00,-2.2,-11.1,30.20,NW,319,9.0,16.0,65,0.00,,,0.00,Wunderground v.1.15,2013-01-24 15:47:00,
2013-01-24 10:52:00,-1.9,-10.8,30.20,North,354,4.0,11.0,65,0.00,,,0.00,Wunderground v.1.15,2013-01-24 15:52:00,
2013-01-24 10:57:00,-1.8,-11.0,30.20,WNW,303,10.0,11.0,64,0.00,,,0.00,Wunderground v.1.15,2013-01-24 15:57:00,
2013-01-24 11:02:00,-1.6,-10.8,30.20,WNW,298,9.0,12.0,64,0.00,,,0.00,Wunderground v.1.15,2013-01-24 16:02:00,
2013-01-24 11:07:00,-1.6,-11.1,30.19,NW,315,4.0,15.0,63,0.00,,,0.00,Wunderground v.1.15,2013-01-24 16:07:00,
2013-01-24 11:12:00,-1.0,-10.6,30.19,NW,307,3.0,8.0,63,0.00,,,0.00,Wunderground v.1.15,2013-01-24 16:12:00,
2013-01-24 11:17:00,-0.7,-10.6,30.19,North,5,10.0,10.0,62,0.00,,,0.00,Wunderground v.1.15,2013-01-24 16:17:00,
2013-01-24 11:22:00,-0.4,-10.3,30.19,NW,309,2.0,12.0,62,0.00,,,0.00,Wunderground v.1.15,2013-01-24 16:22:00,
2013-01-24 11:27:00,-0.5,-10.8,30.19,NW,316,8.0,13.0,61,0.00,,,0.00,Wunderground v.1.15,2013-01-24 16:27:00,
2013-01-24 11:32:00,-0.6,-11.2,30.19,NW,321,7.0,11.0,60,0.00,,,0.00,Wunderground v.1.15,2013-01-24 16:32:00,
2013-01-24 11:38:00,-0.4,-11.0,30.19,WNW,291,9.0,12.0,60,0.00,,,0.00,Wunderground v.1.15,2013-01-24 16:38:00,
2013-01-24 11:43:00,-0.4,-11.3,30.19,NW,313,4.0,13.0,59,0.00,,,0.00,Wunderground v.1.15,2013-01-24 16:43:00,
2013-01-24 11:47:00,0.0,-11.0,30.19,NW,315,11.0,13.0,59,0.00,,,0.00,Wunderground v.1.15,2013-01-24 16:47:00,
2013-01-24 11:52:00,0.1,-10.9,30.19,NW,316,5.0,12.0,59,0.00,,,0.00,Wunderground v.1.15,2013-01-24 16:52:00,
2013-01-24 11:57:00,0.1,-10.5,30.19,WNW,300,8.0,17.0,60,0.00,,,0.00,Wunderground v.1.15,2013-01-24 16:57:00,
2013-01-24 12:02:00,0.4,-10.2,30.19,NW,314,7.0,8.0,60,0.00,,,0.00,Wunderground v.1.15,2013-01-24 17:02:00,
2013-01-24 12:08:00,0.8,-9.9,30.19,NW,311,7.0,11.0,60,0.00,,,0.00,Wunderground v.1.15,2013-01-24 17:08:00,
2013-01-24 12:13:00,0.8,-10.2,30.19,NW,313,6.0,12.0,59,0.00,,,0.00,Wunderground v.1.15,2013-01-24 17:13:00,
2013-01-24 12:18:00,0.9,-10.8,30.18,NW,317,12.0,15.0,57,0.00,,,0.00,Wunderground v.1.15,2013-01-24 17:18:00,
2013-01-24 12:24:00,1.2,-10.5,30.18,NW,311,11.0,14.0,57,0.00,,,0.00,Wunderground v.1.15,2013-01-24 17:24:00,
2013-01-24 12:29:00,1.5,-10.6,30.18,NNW,333,4.0,7.0,56,0.00,,,0.00,Wunderground v.1.15,2013-01-24 17:29:00,
2013-01-24 12:34:00,1.9,-10.6,30.18,NW,313,9.0,10.0,55,0.00,,,0.00,Wunderground v.1.15,2013-01-24 17:34:00,
2013-01-24 12:39:00,2.2,-10.7,30.18,NW,315,6.0,6.0,54,0.00,,,0.00,Wunderground v.1.15,2013-01-24 17:39:00,
2013-01-24 12:44:00,2.4,-10.9,30.17,WNW,292,6.0,16.0,53,0.00,,,0.00,Wunderground v.1.15,2013-01-24 17:44:00,
2013-01-24 12:49:00,1.8,-11.8,30.18,NW,309,9.0,9.0,52,0.00,,,0.00,Wunderground v.1.15,2013-01-24 17:49:00,
2013-01-24 12:54:00,1.7,-11.5,30.17,NNW,336,13.0,18.0,53,0.00,,,0.00,Wunderground v.1.15,2013-01-24 17:54:00,
2013-01-24 12:59:00,1.8,-11.0,30.17,NW,312,12.0,13.0,54,0.00,,,0.00,Wunderground v.1.15,2013-01-24 17:59:00,
2013-01-24 13:04:00,1.8,-10.7,30.17,NW,313,9.0,13.0,55,0.00,,,0.00,Wunderground v.1.15,2013-01-24 18:04:00,
2013-01-24 13:09:00,1.8,-10.7,30.17,WNW,286,8.0,8.0,55,0.00,,,0.00,Wunderground v.1.15,2013-01-24 18:09:00,
2013-01-24 13:14:00,2.3,-10.6,30.17,NW,317,6.0,13.0,54,0.00,,,0.00,Wunderground v.1.15,2013-01-24 18:14:00,
2013-01-24 13:20:00,2.7,-10.2,30.16,WNW,297,6.0,9.0,54,0.00,,,0.00,Wunderground v.1.15,2013-01-24 18:20:00,
2013-01-24 13:25:00,2.8,-10.1,30.16,NW,307,4.0,13.0,54,0.00,,,0.00,Wunderground v.1.15,2013-01-24 18:25:00,
2013-01-24 13:30:00,3.7,-8.9,30.15,North,349,1.0,6.0,55,0.00,,,0.00,Wunderground v.1.15,2013-01-24 18:30:00,
2013-01-24 13:35:00,3.2,-9.7,30.15,West,277,1.0,16.0,54,0.00,,,0.00,Wunderground v.1.15,2013-01-24 18:35:00,
2013-01-24 13:40:00,3.0,-9.5,30.15,NW,322,3.0,5.0,55,0.00,,,0.00,Wunderground v.1.15,2013-01-24 18:40:00,
2013-01-24 13:45:00,2.6,-9.9,30.15,WNW,291,2.0,9.0,55,0.00,,,0.00,Wunderground v.1.15,2013-01-24 18:45:00,
2013-01-24 13:50:00,2.4,-9.7,30.15,NW,323,3.0,6.0,56,0.00,,,0.00,Wunderground v.1.15,2013-01-24 18:50:00,
2013-01-24 13:55:00,2.8,-9.4,30.15,NNW,330,1.0,8.0,56,0.00,,,0.00,Wunderground v.1.15,2013-01-24 18:55:00,
2013-01-24 14:00:00,3.7,-8.9,30.15,NW,308,8.0,8.0,55,0.00,,,0.00,Wunderground v.1.15,2013-01-24 19:00:00,
2013-01-24 14:05:00,4.1,-8.9,30.15,NW,319,2.0,12.0,54,0.00,,,0.00,Wunderground v.1.15,2013-01-24 19:05:00,
2013-01-24 14:10:00,4.1,-9.7,30.15,NW,311,8.0,11.0,52,0.00,,,0.00,Wunderground v.1.15,2013-01-24 19:10:00,
2013-01-24 14:15:00,4.5,-9.7,30.15,WSW,246,2.0,14.0,51,0.00,,,0.00,Wunderground v.1.15,2013-01-24 19:15:00,
2013-01-24 14:20:00,4.8,-9.8,30.15,NW,318,6.0,12.0,50,0.00,,,0.00,Wunderground v.1.15,2013-01-24 19:20:00,
2013-01-24 14:25:00,4.9,-10.1,30.15,NW,307,6.0,12.0,49,0.00,,,0.00,Wunderground v.1.15,2013-01-24 19:25:00,
2013-01-24 14:30:00,5.1,-10.4,30.15,NW,308,10.0,11.0,48,0.00,,,0.00,Wunderground v.1.15,2013-01-24 19:30:00,
2013-01-24 14:35:00,5.2,-10.7,30.15,WNW,298,6.0,17.0,47,0.00,,,0.00,Wunderground v.1.15,2013-01-24 19:35:00,
2013-01-24 14:40:00,5.4,-10.5,30.16,NW,315,2.0,10.0,47,0.00,,,0.00,Wunderground v.1.15,2013-01-24 19:40:00,
2013-01-24 14:45:00,5.7,-10.2,30.16,WNW,288,3.0,10.0,47,0.00,,,0.00,Wunderground v.1.15,2013-01-24 19:45:00,
2013-01-24 14:50:00,6.0,-9.5,30.16,SW,235,6.0,6.0,48,0.00,,,0.00,Wunderground v.1.15,2013-01-24 19:50:00,
2013-01-24 14:55:00,6.1,-10.3,30.16,NW,309,7.0,12.0,46,0.00,,,0.00,Wunderground v.1.15,2013-01-24 19:55:00,
2013-01-24 15:00:00,5.9,-10.0,30.16,NW,316,7.0,9.0,47,0.00,,,0.00,Wunderground v.1.15,2013-01-24 20:00:00,
2013-01-24 15:05:00,5.9,-10.0,30.16,WNW,302,7.0,11.0,47,0.00,,,0.00,Wunderground v.1.15,2013-01-24 20:05:00,
2013-01-24 15:10:00,5.9,-10.5,30.16,WNW,303,11.0,11.0,46,0.00,,,0.00,Wunderground v.1.15,2013-01-24 20:10:00,
2013-01-24 15:15:00,6.0,-10.4,30.16,West,278,4.0,17.0,46,0.00,,,0.00,Wunderground v.1.15,2013-01-24 20:15:00,
2013-01-24 15:20:00,6.2,-10.6,30.16,WNW,297,3.0,6.0,45,0.00,,,0.00,Wunderground v.1.15,2013-01-24 20:20:00,
2013-01-24 15:25:00,6.4,-10.5,30.16,NNW,330,4.0,13.0,45,0.00,,,0.00,Wunderground v.1.15,2013-01-24 20:25:00,
2013-01-24 15:30:00,6.4,-10.5,30.17,NW,307,7.0,9.0,45,0.00,,,0.00,Wunderground v.1.15,2013-01-24 20:30:00,
2013-01-24 15:35:00,6.2,-11.1,30.17,West,271,2.0,14.0,44,0.00,,,0.00,Wunderground v.1.15,2013-01-24 20:35:00,
2013-01-24 15:40:00,6.5,-10.8,30.17,West,267,7.0,13.0,44,0.00,,,0.00,Wunderground v.1.15,2013-01-24 20:40:00,
2013-01-24 15:45:00,6.5,-10.8,30.17,NW,308,4.0,13.0,44,0.00,,,0.00,Wunderground v.1.15,2013-01-24 20:45:00,
2013-01-24 15:50:00,6.5,-10.8,30.17,WSW,254,8.0,9.0,44,0.00,,,0.00,Wunderground v.1.15,2013-01-24 20:50:00,
2013-01-24 15:55:00,6.2,-11.6,30.17,West,269,9.0,15.0,43,0.00,,,0.00,Wunderground v.1.15,2013-01-24 20:55:00,
2013-01-24 16:00:00,6.1,-11.7,30.17,NW,320,8.0,9.0,43,0.00,,,0.00,Wunderground v.1.15,2013-01-24 21:00:00,
2013-01-24 16:05:00,6.1,-11.2,30.17,West,267,15.0,16.0,44,0.00,,,0.00,Wunderground v.1.15,2013-01-24 21:05:00,
2013-01-24 16:10:00,6.0,-11.3,30.17,WNW,292,6.0,11.0,44,0.00,,,0.00,Wunderground v.1.15,2013-01-24 21:10:00,
2013-01-24 16:15:00,6.0,-11.3,30.17,NW,313,7.0,16.0,44,0.00,,,0.00,Wunderground v.1.15,2013-01-24 21:15:00,
2013-01-24 16:20:00,5.9,-11.4,30.17,WNW,287,5.0,13.0,44,0.00,,,0.00,Wunderground v.1.15,2013-01-24 21:20:00,
2013-01-24 16:25:00,5.9,-11.8,30.17,WNW,294,14.0,14.0,43,0.00,,,0.00,Wunderground v.1.15,2013-01-24 21:25:00,
2013-01-24 16:30:00,5.8,-11.9,30.17,NW,315,5.0,14.0,43,0.00,,,0.00,Wunderground v.1.15,2013-01-24 21:30:00,
2013-01-24 16:36:00,5.4,-11.8,30.17,NNW,341,4.0,16.0,44,0.00,,,0.00,Wunderground v.1.15,2013-01-24 21:36:00,
2013-01-24 16:40:00,5.0,-11.7,30.17,NW,304,10.0,11.0,45,0.00,,,0.00,Wunderground v.1.15,2013-01-24 21:40:00,
2013-01-24 16:45:00,4.8,-11.9,30.17,NNW,334,5.0,18.0,45,0.00,,,0.00,Wunderground v.1.15,2013-01-24 21:45:00,
2013-01-24 16:50:00,4.6,-11.7,30.18,NW,311,9.0,10.0,46,0.00,,,0.00,Wunderground v.1.15,2013-01-24 21:50:00,
2013-01-24 16:56:00,4.4,-11.9,30.17,WSW,243,15.0,16.0,46,0.00,,,0.00,Wunderground v.1.15,2013-01-24 21:56:00,
2013-01-24 17:01:00,4.3,-12.0,30.18,NW,315,7.0,10.0,46,0.00,,,0.00,Wunderground v.1.15,2013-01-24 22:01:00,
2013-01-24 17:06:00,4.1,-12.1,30.18,NW,309,6.0,14.0,46,0.00,,,0.00,Wunderground v.1.15,2013-01-24 22:06:00,
2013-01-24 17:11:00,4.0,-12.2,30.18,NW,314,6.0,10.0,46,0.00,,,0.00,Wunderground v.1.15,2013-01-24 22:11:00,
2013-01-24 17:16:00,3.9,-11.9,30.18,NW,311,11.0,17.0,47,0.00,,,0.00,Wunderground v.1.15,2013-01-24 22:16:00,
2013-01-24 17:21:00,3.8,-11.6,30.19,NW,306,8.0,17.0,48,0.00,,,0.00,Wunderground v.1.15,2013-01-24 22:21:00,
2013-01-24 17:26:00,3.7,-11.6,30.19,NW,318,9.0,17.0,48,0.00,,,0.00,Wunderground v.1.15,2013-01-24 22:26:00,
2013-01-24 17:31:00,3.6,-11.3,30.20,SW,218,3.0,13.0,49,0.00,,,0.00,Wunderground v.1.15,2013-01-24 22:31:00,
2013-01-24 17:36:00,3.5,-11.4,30.20,West,277,5.0,14.0,49,0.00,,,0.00,Wunderground v.1.15,2013-01-24 22:36:00,
2013-01-24 17:41:00,3.5,-11.4,30.20,NW,306,8.0,10.0,49,0.00,,,0.00,Wunderground v.1.15,2013-01-24 22:41:00,
2013-01-24 17:46:00,3.4,-11.5,30.20,West,270,9.0,10.0,49,0.00,,,0.00,Wunderground v.1.15,2013-01-24 22:46:00,
2013-01-24 17:51:00,3.4,-11.5,30.20,SW,214,4.0,10.0,49,0.00,,,0.00,Wunderground v.1.15,2013-01-24 22:51:00,
2013-01-24 17:56:00,3.3,-12.0,30.20,NW,321,6.0,13.0,48,0.00,,,0.00,Wunderground v.1.15,2013-01-24 22:56:00,
2013-01-24 18:01:00,3.3,-11.6,30.21,SW,236,7.0,15.0,49,0.00,,,0.00,Wunderground v.1.15,2013-01-24 23:01:00,
2013-01-24 18:06:00,3.2,-11.7,30.21,West,267,7.0,17.0,49,0.00,,,0.00,Wunderground v.1.15,2013-01-24 23:06:00,
2013-01-24 18:11:00,3.1,-11.8,30.21,West,273,6.0,11.0,49,0.00,,,0.00,Wunderground v.1.15,2013-01-24 23:11:00,
2013-01-24 18:16:00,3.0,-11.9,30.21,NW,310,8.0,17.0,49,0.00,,,0.00,Wunderground v.1.15,2013-01-24 23:16:00,
2013-01-24 18:21:00,3.0,-11.5,30.21,WNW,297,9.0,14.0,50,0.00,,,0.00,Wunderground v.1.15,2013-01-24 23:21:00,
2013-01-24 18:26:00,2.8,-11.7,30.22,West,281,6.0,15.0,50,0.00,,,0.00,Wunderground v.1.15,2013-01-24 23:26:00,
2013-01-24 18:31:00,2.7,-11.4,30.22,WNW,292,6.0,12.0,51,0.00,,,0.00,Wunderground v.1.15,2013-01-24 23:31:00,
2013-01-24 18:36:00,2.6,-11.1,30.22,NW,321,6.0,14.0,52,0.00,,,0.00,Wunderground v.1.15,2013-01-24 23:36:00,
2013-01-24 18:41:00,2.4,-11.2,30.23,NW,316,4.0,10.0,52,0.00,,,0.00,Wunderground v.1.15,2013-01-24 23:41:00,
2013-01-24 18:46:00,2.2,-11.0,30.23,West,278,5.0,14.0,53,0.00,,,0.00,Wunderground v.1.15,2013-01-24 23:46:00,
2013-01-24 18:51:00,2.1,-11.1,30.24,NW,318,3.0,10.0,53,0.00,,,0.00,Wunderground v.1.15,2013-01-24 23:51:00,
2013-01-24 18:56:00,1.9,-11.0,30.24,WNW,295,5.0,12.0,54,0.00,,,0.00,Wunderground v.1.15,2013-01-24 23:56:00,
2013-01-24 19:01:00,1.9,-11.3,30.24,NW,323,5.0,7.0,53,0.00,,,0.00,Wunderground v.1.15,2013-01-25 00:01:00,
2013-01-24 19:07:00,1.8,-11.4,30.24,WNW,294,6.0,12.0,53,0.00,,,0.00,Wunderground v.1.15,2013-01-25 00:07:00,
2013-01-24 19:12:00,1.7,-11.5,30.24,West,273,4.0,12.0,53,0.00,,,0.00,Wunderground v.1.15,2013-01-25 00:12:00,
2013-01-24 19:17:00,1.5,-11.7,30.25,West,270,4.0,14.0,53,0.00,,,0.00,Wunderground v.1.15,2013-01-25 00:17:00,
2013-01-24 19:22:00,1.4,-11.8,30.25,West,277,11.0,11.0,53,0.00,,,0.00,Wunderground v.1.15,2013-01-25 00:22:00,
2013-01-24 19:27:00,1.4,-11.8,30.25,NW,321,8.0,12.0,53,0.00,,,0.00,Wunderground v.1.15,2013-01-25 00:27:00,
2013-01-24 19:32:00,1.3,-11.9,30.25,West,273,7.0,13.0,53,0.00,,,0.00,Wunderground v.1.15,2013-01-25 00:32:00,
2013-01-24 19:37:00,1.1,-12.1,30.25,WNW,302,5.0,13.0,53,0.00,,,0.00,Wunderground v.1.15,2013-01-25 00:37:00,
2013-01-24 19:42:00,1.0,-12.2,30.25,SSW,207,12.0,12.0,53,0.00,,,0.00,Wunderground v.1.15,2013-01-25 00:42:00,
2013-01-24 19:47:00,0.8,-12.4,30.25,NW,308,6.0,15.0,53,0.00,,,0.00,Wunderground v.1.15,2013-01-25 00:47:00,
2013-01-24 19:52:00,0.6,-12.2,30.25,WNW,288,9.0,12.0,54,0.00,,,0.00,Wunderground v.1.15,2013-01-25 00:52:00,
2013-01-24 19:57:00,0.6,-12.2,30.25,SSE,165,4.0,12.0,54,0.00,,,0.00,Wunderground v.1.15,2013-01-25 00:57:00,
2013-01-24 20:02:00,0.4,-12.0,30.25,North,353,3.0,8.0,55,0.00,,,0.00,Wunderground v.1.15,2013-01-25 01:02:00,
2013-01-24 20:07:00,0.3,-12.1,30.26,NW,316,5.0,12.0,55,0.00,,,0.00,Wunderground v.1.15,2013-01-25 01:07:00,
2013-01-24 20:12:00,0.3,-12.1,30.26,NW,312,3.0,12.0,55,0.00,,,0.00,Wunderground v.1.15,2013-01-25 01:12:00,
2013-01-24 20:17:00,0.2,-12.2,30.26,WNW,290,6.0,14.0,55,0.00,,,0.00,Wunderground v.1.15,2013-01-25 01:17:00,
2013-01-24 20:22:00,0.0,-12.0,30.26,West,261,1.0,10.0,56,0.00,,,0.00,Wunderground v.1.15,2013-01-25 01:22:00,
2013-01-24 20:27:00,-0.2,-12.2,30.26,West,269,1.0,10.0,56,0.00,,,0.00,Wunderground v.1.15,2013-01-25 01:27:00,
2013-01-24 20:32:00,-0.3,-11.9,30.26,West,266,4.0,8.0,57,0.00,,,0.00,Wunderground v.1.15,2013-01-25 01:32:00,
2013-01-24 20:37:00,-0.4,-12.0,30.26,NW,321,10.0,10.0,57,0.00,,,0.00,Wunderground v.1.15,2013-01-25 01:37:00,
2013-01-24 20:42:00,-0.5,-12.1,30.26,NW,318,14.0,14.0,57,0.00,,,0.00,Wunderground v.1.15,2013-01-25 01:42:00,
2013-01-24 20:47:00,-0.6,-12.2,30.26,WNW,283,2.0,14.0,57,0.00,,,0.00,Wunderground v.1.15,2013-01-25 01:47:00,
2013-01-24 20:52:00,-0.7,-12.3,30.26,SW,231,2.0,11.0,57,0.00,,,0.00,Wunderground v.1.15,2013-01-25 01:52:00,
2013-01-24 20:57:00,-0.7,-12.3,30.26,NW,314,6.0,12.0,57,0.00,,,0.00,Wunderground v.1.15,2013-01-25 01:57:00,
2013-01-24 21:02:00,-0.8,-12.4,30.26,NW,309,1.0,6.0,57,0.00,,,0.00,Wunderground v.1.15,2013-01-25 02:02:00,
2013-01-24 21:07:00,-1.0,-12.6,30.26,WSW,257,3.0,6.0,57,0.00,,,0.00,Wunderground v.1.15,2013-01-25 02:07:00,
2013-01-24 21:12:00,-1.1,-12.3,30.27,NW,309,3.0,7.0,58,0.00,,,0.00,Wunderground v.1.15,2013-01-25 02:12:00,
2013-01-24 21:17:00,-1.1,-12.3,30.27,NE,51,2.0,8.0,58,0.00,,,0.00,Wunderground v.1.15,2013-01-25 02:17:00,
2013-01-24 21:22:00,-1.2,-12.4,30.28,NW,308,0.0,4.0,58,0.00,,,0.00,Wunderground v.1.15,2013-01-25 02:22:00,
2013-01-24 21:27:00,-1.4,-12.6,30.28,WNW,291,0.0,5.0,58,0.00,,,0.00,Wunderground v.1.15,2013-01-25 02:27:00,
2013-01-24 21:32:00,-1.4,-12.6,30.28,WNW,285,1.0,6.0,58,0.00,,,0.00,Wunderground v.1.15,2013-01-25 02:32:00,
2013-01-24 21:37:00,-1.4,-12.3,30.28,South,190,4.0,11.0,59,0.00,,,0.00,Wunderground v.1.15,2013-01-25 02:37:00,
2013-01-24 21:42:00,-1.3,-12.2,30.27,WNW,283,3.0,9.0,59,0.00,,,0.00,Wunderground v.1.15,2013-01-25 02:42:00,
2013-01-24 21:47:00,-1.3,-12.2,30.27,WNW,285,3.0,9.0,59,0.00,,,0.00,Wunderground v.1.15,2013-01-25 02:47:00,
2013-01-24 21:52:00,-1.4,-12.3,30.27,WNW,298,3.0,6.0,59,0.00,,,0.00,Wunderground v.1.15,2013-01-25 02:52:00,
2013-01-24 21:57:00,-1.5,-12.4,30.27,NW,310,3.0,7.0,59,0.00,,,0.00,Wunderground v.1.15,2013-01-25 02:57:00,
2013-01-24 22:02:00,-1.5,-12.0,30.27,WNW,301,6.0,10.0,60,0.00,,,0.00,Wunderground v.1.15,2013-01-25 03:02:00,
2013-01-24 22:08:00,-1.6,-12.1,30.27,NW,310,4.0,10.0,60,0.00,,,0.00,Wunderground v.1.15,2013-01-25 03:08:00,
2013-01-24 22:13:00,-1.7,-11.9,30.28,WNW,294,4.0,8.0,61,0.00,,,0.00,Wunderground v.1.15,2013-01-25 03:13:00,
2013-01-24 22:18:00,-1.7,-11.9,30.28,NW,307,3.0,8.0,61,0.00,,,0.00,Wunderground v.1.15,2013-01-25 03:18:00,
2013-01-24 22:22:00,-1.6,-11.8,30.29,NW,308,5.0,13.0,61,0.00,,,0.00,Wunderground v.1.15,2013-01-25 03:22:00,
2013-01-24 22:28:00,-1.5,-11.7,30.28,WSW,240,8.0,14.0,61,0.00,,,0.00,Wunderground v.1.15,2013-01-25 03:28:00,
2013-01-24 22:34:00,-1.5,-11.7,30.29,NW,309,0.0,7.0,61,0.00,,,0.00,Wunderground v.1.15,2013-01-25 03:34:00,
2013-01-24 22:39:00,-1.6,-11.8,30.30,NNE,14,6.0,9.0,61,0.00,,,0.00,Wunderground v.1.15,2013-01-25 03:39:00,
2013-01-24 22:44:00,-1.6,-11.8,30.30,NW,315,1.0,9.0,61,0.00,,,0.00,Wunderground v.1.15,2013-01-25 03:44:00,
2013-01-24 22:49:00,-1.8,-12.0,30.30,WNW,301,0.0,2.0,61,0.00,,,0.00,Wunderground v.1.15,2013-01-25 03:49:00,
2013-01-24 22:54:00,-1.9,-11.8,30.30,NW,326,6.0,9.0,62,0.00,,,0.00,Wunderground v.1.15,2013-01-25 03:54:00,
2013-01-24 22:59:00,-1.8,-11.7,30.30,NW,309,7.0,8.0,62,0.00,,,0.00,Wunderground v.1.15,2013-01-25 03:59:00,
2013-01-24 23:04:00,-1.6,-11.8,30.30,NW,311,6.0,10.0,61,0.00,,,0.00,Wunderground v.1.15,2013-01-25 04:04:00,
2013-01-24 23:09:00,-1.6,-11.8,30.30,WNW,301,4.0,4.0,61,0.00,,,0.00,Wunderground v.1.15,2013-01-25 04:09:00,
2013-01-24 23:14:00,-1.8,-12.0,30.30,NW,306,9.0,10.0,61,0.00,,,0.00,Wunderground v.1.15,2013-01-25 04:14:00,
2013-01-24 23:19:00,-1.7,-11.6,30.31,WNW,297,5.0,6.0,62,0.00,,,0.00,Wunderground v.1.15,2013-01-25 04:19:00,
2013-01-24 23:24:00,-1.6,-11.5,30.31,NW,318,5.0,10.0,62,0.00,,,0.00,Wunderground v.1.15,2013-01-25 04:24:00,
2013-01-24 23:29:00,-1.7,-11.6,30.30,WNW,298,10.0,11.0,62,0.00,,,0.00,Wunderground v.1.15,2013-01-25 04:29:00,
2013-01-24 23:34:00,-1.6,-11.5,30.30,West,262,5.0,14.0,62,0.00,,,0.00,Wunderground v.1.15,2013-01-25 04:34:00,
2013-01-24 23:39:00,-1.6,-11.5,30.30,WNW,283,2.0,9.0,62,0.00,,,0.00,Wunderground v.1.15,2013-01-25 04:39:00,
2013-01-24 23:44:00,-1.6,-11.5,30.30,West,264,2.0,12.0,62,0.00,,,0.00,Wunderground v.1.15,2013-01-25 04:44:00,
2013-01-24 23:49:00,-1.7,-11.6,30.30,NW,314,7.0,7.0,62,0.00,,,0.00,Wunderground v.1.15,2013-01-25 04:49:00,
2013-01-24 23:54:00,-1.8,-11.3,30.30,NW,318,3.0,9.0,63,0.00,,,0.00,Wunderground v.1.15,2013-01-25 04:54:00,
2013-01-24 23:59:00,-1.8,-11.3,30.30,WNW,302,8.0,8.0,63,0.00,,,0.00,Wunderground v.1.15,2013-01-25 04:59:00,